Lid_Strength_Index
4 4 5 5 5 5 5 4 5 4 4 4 4 4 4 4 3 3 3 3 3 3 3 3 3 3 4 9 10 6 -2 -2 0 3 5 5 7 8 10 10 9 11 10 9 8 8 8
4 5 5 5 5 5 5 6 6 5 5 5 5 5 5 5 5 4 4 4 3 3 3 3 3 3 7 13 7 4 0 1 2 4 5 5 6 6 9 10 10 10 10 10 9 9 9
5 5 5 5 5 6 6 5 6 6 5 5 6 6 6 6 5 5 5 4 4 4 4 3 3 4 7 9 5 3 1 2 3 4 5 4 5 7 8 10 8 9 12 11 11 10 10
5 5 5 6 6 6 6 6 6 6 5 5 5 5 5 5 4 4 4 4 3 3 4 3 4 6 11 4 4 5 1 4 3 2 4 3 4 6 8 8 10 12 14 16 13 11 10
5 6 6 6 5 5 5 5 4 4 4 4 4 4 4 5 4 3 3 3 2 2 2 2 5 6 11 5 6 6 2 4 4 3 4 3 5 8 8 12 14 15 18 17 15 11 12
6 5 5 5 5 5 4 4 4 4 4 4 4 5 5 5 4 3 3 2 3 3 2 3 4 9 9 10 7 7 3 4 6 6 7 7 8 11 10 12 19 17 17 17 17 14 13
5 5 5 5 4 4 4 4 4 4 4 4 5 5 5 5 4 3 5 8 10 12 8 10 10 10 9 7 7 8 4 6 6 8 11 9 11 14 12 11 13 15 16 18 16 12 13
5 4 4 4 4 4 4 4 4 4 4 4 4 5 4 4 4 3 6 9 9 8 13 10 10 10 7 6 9 8 4 8 9 11 10 11 14 11 11 11 11 13 15 16 14 12 13
5 5 5 4 5 4 4 4 4 4 4 4 5 5 5 4 4 7 9 11 8 6 12 12 10 10 10 8 10 9 6 8 10 12 11 13 13 10 11 12 13 13 15 17 15 13 13
5 4 5 5 5 5 5 5 5 4 5 5 5 5 5 4 9 9 8 9 9 6 17 16 12 10 9 9 12 7 5 7 11 12 11 12 10 11 12 13 12 15 12 12 13 16 20
5 5 5 5 5 5 4 5 5 5 5 5 5 6 6 5 10 12 9 9 9 8 29 14 11 7 9 11 10 9 7 8 11 11 11 13 12 12 13 12 11 14 11 12 13 16 16
5 5 5 4 4 5 5 5 5 5 5 6 5 6 6 8 11 10 10 9 6 18 28 14 12 13 14 12 10 8 8 7 7 10 10 11 10 10 11 9 9 9 12 13 13 15 20
5 5 5 5 5 5 5 5 5 5 5 6 5 6 7 7 12 10 9 6 16 25 15 17 17 14 15 15 13 13 12 15 13 15 15 12 11 9 8 11 9 11 14 19 20 20 21
5 5 5 5 6 5 5 6 6 6 5 5 5 6 9 8 9 10 9 11 21 17 18 14 14 13 15 15 14 13 12 15 14 15 15 16 18 12 10 11 13 13 14 19 23 23 21
6 5 5 5 5 5 6 6 6 6 5 4 6 11 12 10 10 10 11 19 19 17 15 15 13 15 16 14 14 14 15 16 16 14 17 18 16 13 12 12 11 13 16 13 18 20 22
6 6 6 6 6 6 6 6 6 6 5 5 12 14 12 9 10 9 14 16 14 11 12 12 16 14 18 16 16 16 15 15 15 14 14 17 20 14 13 12 13 14 13 17 16 22 23
6 6 6 6 6 6 6 6 6 5 5 6 13 16 10 8 10 13 17 14 12 9 9 12 14 15 15 16 15 15 16 14 13 14 14 16 18 18 15 17 18 17 19 17 16 17 21
6 6 6 6 6 6 6 6 5 5 5 9 14 17 9 9 14 15 15 12 8 9 8 10 11 12 14 14 15 14 15 14 11 13 16 14 17 21 19 14 14 16 18 18 20 20 20
6 6 6 6 6 6 6 6 5 5 4 11 14 13 8 9 15 14 11 10 9 9 9 9 10 9 10 13 16 13 13 10 11 12 15 14 18 22 19 16 16 18 17 17 18 20 22
6 6 6 6 6 6 6 6 5 4 4 10 13 16 12 11 11 13 11 11 10 7 8 8 9 8 10 12 11 14 12 10 9 11 9 12 16 19 22 20 18 19 18 17 19 22 22
6 6 6 6 6 6 5 5 4 4 3 10 13 14 11 13 11 12 13 11 11 11 8 8 9 9 10 15 12 13 11 10 9 8 11 14 20 17 17 16 16 17 19 19 19 19 22
6 6 6 6 6 5 6 5 4 3 4 10 13 11 10 12 11 13 12 12 11 10 9 10 11 9 10 12 11 14 11 11 11 11 12 12 21 16 19 16 16 19 20 19 20 19 19
7 6 6 6 5 5 5 4 4 3 5 10 6 5 9 11 12 15 11 11 11 9 8 8 8 10 11 9 8 9 9 10 9 10 12 13 17 17 21 16 17 23 22 20 19 19 21
7 6 6 6 6 5 4 4 3 2 4 8 6 5 10 14 11 10 10 10 11 10 11 9 8 10 8 7 7 8 9 11 11 12 11 12 13 13 19 15 26 19 16 17 20 19 19
7 7 6 6 6 4 4 4 3 2 2 7 6 4 12 12 10 10 10 11 10 10 11 10 9 7 8 8 14 14 13 14 13 13 14 13 15 17 17 19 19 18 17 18 19 20 18
7 6 6 6 5 4 4 3 2 1 1 6 4 3 9 14 12 9 12 12 13 14 13 11 8 8 7 9 15 19 18 16 18 17 13 14 18 22 21 24 23 20 16 14 15 22 16
7 6 6 6 5 4 4 3 2 1 1 5 5 3 7 15 10 10 15 14 11 13 18 13 11 11 8 14 15 17 19 16 23 22 21 20 20 23 21 22 19 16 15 14 23 22 15
7 6 6 5 4 4 3 3 2 1 1 4 5 3 9 16 12 8 9 16 13 13 16 13 15 15 13 16 15 16 18 18 20 19 20 21 25 22 20 23 26 14 16 21 17 15 16
7 6 6 5 4 4 3 2 2 1 2 3 7 4 3 11 11 6 7 8 8 9 11 13 13 13 12 13 16 16 18 19 23 24 17 22 19 21 20 19 14 15 15 14 15 16 16